Regional Weather Roundup
Issued by NWS Jackson, KY

Home | Current Version | Previous Version | Text Only | Print | Product List | Glossary Off
Versions: 1 2 3 4 5 6 7 8 9 10 11 12 13 14 15 16 17 18 19 20 21 22 23 24 25 26 27 28 29 30 31 32 33 34 35 36 37 38 39 40 41 42 43 44 45 46 47 48 49 50

000
ASUS43 KJKL 202210
RWRJKL

EAST KENTUCKY HOURLY WEATHER ROUNDUP
NATIONAL WEATHER SERVICE JACKSON KY
500 PM EST FRI JAN 20 2017

NOTE: "FAIR" INDICATES FEW OR NO CLOUDS BELOW 12,000 FEET WITH
NO SIGNIFICANT WEATHER AND/OR OBSTRUCTIONS TO VISIBILITY.

* THESE REPORTS ARE NOT UNDER NWS QUALITY CONTROL AND MAY NOT
  REPORT WEATHER SUCH AS PRECIPITATION AND FOG.

KYZ079-080-083-085-087-088-110-112-115-119-120-202300
...EASTERN KENTUCKY...

CITY           SKY/WX    TMP DP  RH WIND       PRES   REMARKS
JACKSON        PTCLDY    64  50  60 SW6       29.76R
LONDON         CLEAR     64  45  49 SW6       29.77R
SOMERSET*      PTCLDY    63  45  51 SW5       29.78S
MONTICELLO*    PTCLDY    64  49  57 VRB3      29.78S
WILLIAMSBURG*  PTCLDY    64  46  52 SW9       29.77S
MIDDLESBORO*   CLOUDY    65  51  60 S8        29.79R
HARLAN APT*    MOCLDY    63  46  55 CALM      29.79R
PIKE CO APT*   CLOUDY    64  49  57 SW5       29.77R
BIG SANDY APT* MOCLDY    64  51  61 S7        29.76S
MOREHEAD APT*  CLEAR     63  48  59 SW9       29.77R
ASHLAND*       PTCLDY    64  52  63 W8        29.72S
$$

KYZ035-036-041-042-044-050-067-078-099-202300
...CENTRAL KENTUCKY...

CITY           SKY/WX    TMP DP  RH WIND       PRES   REMARKS
MT STERLING*   PTCLDY    61  50  67 W8        29.76S
FLEMING/MASON* MOCLDY    59  50  71 SW6       29.76R
DANVILLE*      CLEAR     59  46  63 SW6       29.76R
LEXINGTON      MOCLDY    61  48  62 SW8G18    29.75R
FRANKFORT      CLOUDY    61  48  62 SW8       29.73R
LOUISVILLE     CLOUDY    62  48  60 S8        29.72R
LEBANON*       MOCLDY    59  50  72 S6        29.75R
GLASGOW*       CLOUDY    63  52  68 CALM      29.73S
BOWLING GREEN  CLOUDY    65  53  65 S10       29.72S
$$

KYZ091>093-OHZ055-061-077-WVZ005-015-034-035-042-202300
...SOUTHERN OHIO/WEST VIRGINIA...

CITY           SKY/WX    TMP DP  RH WIND       PRES   REMARKS
COVINGTON      MOCLDY    59  49  69 SW9       29.72R
COLUMBUS       MOCLDY    60  49  66 SW12      29.71R
DAYTON         MOCLDY    54  47  77 W10       29.71R
WILMINGTON     PTCLDY    56  50  80 SW9       29.71R
HUNTINGTON     CLEAR     65  48  54 SW10      29.74R
CHARLESTON     MOCLDY    64  49  57 CALM      29.75S
PINEVILLE*     CLOUDY    61  48  63 MISG      29.82S
BECKLEY        PTCLDY    59  45  59 SW7       29.79S
BLUEFIELD      CLOUDY    56  44  64 SW13G22   29.82R
LOGAN CO APT*    N/A     64  48  55 SW6G12    29.76S
$$

VAZ002-007-008-TNZ017-027-036-066-071-202300
...SOUTHWEST VIRGINIA/EAST TENNESSEE...

CITY           SKY/WX    TMP DP  RH WIND       PRES   REMARKS
WISE*          PTCLDY    59  45  58 SW14      29.83R
JONESVILLE*      N/A     64  48  55 SW10      29.82R
ABINGDON*      PTCLDY    61  52  72 W5        29.82S
BRISTOL        MOCLDY    64  49  57 W8        29.80S
MORRISTOWN*    CLEAR     66  50  55 W10G18    29.79R
SEVIERVILLE*   CLEAR     68  48  49 W7        29.78S
KNOXVILLE      MOCLDY    67  50  54 SW13      29.78S
LAFOLLETTE*    PTCLDY    64  50  59 SW7       29.81R
OAK RIDGE      PTCLDY    67  49  52 SW6       29.79S
CROSSVILLE     MOCLDY    62  49  62 S6        29.79F
NASHVILLE      MOCLDY    68  52  56 S14       29.73S
$$

...KEY TO REMARKS...
VSB - VISIBILITY IN MILES
WCI - WIND CHILL INDEX
HX  - HEAT INDEX

$$



USA.gov is the U.S. government's official web portal to all federal, state and local government web resources and services.